When you browse on this site, cookies collect data to enhance your experience and personalize the content and advertising you see.
Visit our Privacy Policy to learn more. By continuing to use the site, you agree to this use of cookies and data.
  • en Suisse
  • Liste des pays
  • À 7 jours
  • Température de l'eau
  • Carte satellitaire
  • Carte météo
  • Widgets météo
  • user-avatar
    Se connecter

    Météo par heure à Shuvayka

    Ce jour, 24 Juillet, Mercredi

    Heure Température Précipitation Vent Pression Humidité
    00:00 +16°C° 0 mm 2 m/s 738 mmHg 93%
    01:00 +16°C° 0 mm 2 m/s 738 mmHg 93%
    02:00 +16°C° 0 mm 1 m/s 738 mmHg 93%
    03:00 +15°C° 0 mm 1 m/s 738 mmHg 93%
    04:00 +16°C° 0 mm 1 m/s 738 mmHg 93%
    05:00 +16°C° 0 mm 1 m/s 738 mmHg 93%
    06:00 +16°C° 0 mm 1 m/s 738 mmHg 93%
    07:00 +18°C° 0.2 mm 1 m/s 738 mmHg 91%
    08:00 +19°C° 0.2 mm 1 m/s 738 mmHg 88%
    09:00 +19°C° 0.2 mm 2 m/s 738 mmHg 86%
    10:00 +20°C° 1 mm 2 m/s 738 mmHg 83%
    11:00 +21°C° 1 mm 1 m/s 738 mmHg 79%
    12:00 +22°C° 1 mm 1 m/s 739 mmHg 76%
    13:00 +20°C° 0.3 mm 2 m/s 739 mmHg 78%
    14:00 +20°C° 0.3 mm 2 m/s 738 mmHg 80%
    15:00 +20°C° 0.3 mm 2 m/s 738 mmHg 81%
    16:00 +20°C° 0.1 mm 2 m/s 738 mmHg 81%
    17:00 +20°C° 0.1 mm 2 m/s 738 mmHg 80%
    18:00 +21°C° 0.1 mm 2 m/s 738 mmHg 79%
    19:00 +19°C° 0.2 mm 2 m/s 738 mmHg 82%
    20:00 +18°C° 0.2 mm 2 m/s 738 mmHg 86%
    21:00 +17°C° 0.2 mm 2 m/s 738 mmHg 89%
    22:00 +17°C° 0.1 mm 2 m/s 738 mmHg 89%
    23:00 +17°C° 0.1 mm 2 m/s 738 mmHg 90%

    Demain, 25 Juillet, Jeudi

    Heure Température Précipitation Vent Pression Humidité
    00:00 +16°C° 0.1 mm 1 m/s 739 mmHg 90%
    01:00 +16°C° 0 mm 1 m/s 739 mmHg 91%
    02:00 +16°C° 0 mm 1 m/s 739 mmHg 91%
    03:00 +15°C° 0 mm 0 m/s 739 mmHg 91%
    04:00 +15°C° 0 mm 0 m/s 739 mmHg 91%
    05:00 +15°C° 0 mm 0 m/s 739 mmHg 91%
    06:00 +15°C° 0 mm 0 m/s 739 mmHg 92%
    07:00 +18°C° 0 mm 1 m/s 739 mmHg 89%
    08:00 +19°C° 0 mm 1 m/s 739 mmHg 86%
    09:00 +19°C° 0 mm 1 m/s 739 mmHg 83%
    10:00 +20°C° 0.3 mm 1 m/s 740 mmHg 79%
    11:00 +21°C° 0.3 mm 2 m/s 740 mmHg 75%
    12:00 +23°C° 0.3 mm 2 m/s 740 mmHg 71%
    13:00 +23°C° 0.6 mm 2 m/s 740 mmHg 72%
    14:00 +23°C° 0.6 mm 2 m/s 740 mmHg 73%
    15:00 +22°C° 0.6 mm 3 m/s 740 mmHg 75%
    16:00 +22°C° 0.9 mm 3 m/s 740 mmHg 78%
    17:00 +21°C° 0.9 mm 3 m/s 740 mmHg 81%
    18:00 +21°C° 0.9 mm 4 m/s 740 mmHg 85%
    19:00 +20°C° 0.3 mm 4 m/s 740 mmHg 87%
    20:00 +19°C° 0.3 mm 4 m/s 740 mmHg 90%
    21:00 +18°C° 0.3 mm 4 m/s 740 mmHg 93%
    22:00 +18°C° 0.1 mm 4 m/s 740 mmHg 93%
    23:00 +17°C° 0.1 mm 4 m/s 740 mmHg 94%

    Après-demain, 26 Juillet, Vendredi

    Heure Température Précipitation Vent Pression Humidité
    00:00 +17°C° 0.1 mm 3 m/s 740 mmHg 95%
    01:00 +17°C° 0.2 mm 4 m/s 740 mmHg 95%
    02:00 +17°C° 0.2 mm 4 m/s 740 mmHg 96%
    03:00 +17°C° 0.2 mm 4 m/s 740 mmHg 96%
    04:00 +17°C° 0.6 mm 4 m/s 740 mmHg 96%
    05:00 +17°C° 0.6 mm 4 m/s 740 mmHg 96%
    06:00 +17°C° 0.6 mm 3 m/s 740 mmHg 96%
    07:00 +18°C° 0.1 mm 4 m/s 740 mmHg 94%
    08:00 +19°C° 0.1 mm 4 m/s 740 mmHg 91%
    09:00 +20°C° 0.1 mm 5 m/s 741 mmHg 89%
    10:00 +21°C° 0.2 mm 5 m/s 740 mmHg 84%
    11:00 +22°C° 0.2 mm 6 m/s 740 mmHg 78%
    12:00 +24°C° 0.2 mm 6 m/s 740 mmHg 73%
    13:00 +24°C° 0.4 mm 6 m/s 740 mmHg 74%
    14:00 +24°C° 0.4 mm 6 m/s 740 mmHg 75%
    15:00 +24°C° 0.4 mm 6 m/s 740 mmHg 75%
    16:00 +23°C° 0.7 mm 6 m/s 740 mmHg 78%
    17:00 +23°C° 0.7 mm 5 m/s 739 mmHg 80%
    18:00 +22°C° 0.7 mm 4 m/s 739 mmHg 83%
    19:00 +21°C° 0.3 mm 4 m/s 739 mmHg 85%
    20:00 +20°C° 0.3 mm 3 m/s 739 mmHg 87%
    21:00 +19°C° 0.3 mm 3 m/s 739 mmHg 90%
    22:00 +19°C° 0 mm 3 m/s 739 mmHg 91%
    23:00 +18°C° 0 mm 4 m/s 739 mmHg 92%

    27 Juillet, Samedi

    Heure Température Précipitation Vent Pression Humidité
    00:00 +18°C° 0 mm 4 m/s 739 mmHg 92%
    01:00 +18°C° 0 mm 4 m/s 739 mmHg 93%
    02:00 +17°C° 0 mm 4 m/s 739 mmHg 94%
    03:00 +17°C° 0 mm 4 m/s 739 mmHg 95%
    04:00 +17°C° 0 mm 4 m/s 739 mmHg 95%
    05:00 +17°C° 0 mm 4 m/s 739 mmHg 95%
    06:00 +17°C° 0 mm 4 m/s 739 mmHg 95%
    07:00 +19°C° 0 mm 4 m/s 739 mmHg 91%
    08:00 +20°C° 0 mm 5 m/s 738 mmHg 88%
    09:00 +21°C° 0 mm 5 m/s 738 mmHg 84%
    10:00 +22°C° 0.2 mm 5 m/s 738 mmHg 80%
    11:00 +23°C° 0.2 mm 6 m/s 738 mmHg 76%
    12:00 +24°C° 0.2 mm 6 m/s 738 mmHg 72%
    13:00 +24°C° 0.2 mm 6 m/s 738 mmHg 70%
    14:00 +26°C° 0.2 mm 5 m/s 738 mmHg 69%
    15:00 +26°C° 0.2 mm 5 m/s 737 mmHg 68%
    16:00 +26°C° 0.2 mm 4 m/s 737 mmHg 70%
    17:00 +26°C° 0.2 mm 3 m/s 737 mmHg 72%
    18:00 +25°C° 0.2 mm 3 m/s 737 mmHg 75%
    19:00 +24°C° 0.1 mm 3 m/s 737 mmHg 79%
    20:00 +21°C° 0.1 mm 3 m/s 737 mmHg 83%
    21:00 +20°C° 0.1 mm 2 m/s 737 mmHg 88%
    22:00 +19°C° 0 mm 2 m/s 736 mmHg 89%
    23:00 +19°C° 0 mm 2 m/s 736 mmHg 90%

    28 Juillet, Dimanche

    Heure Température Précipitation Vent Pression Humidité
    00:00 +18°C° 0 mm 2 m/s 736 mmHg 91%
    01:00 +18°C° 0 mm 2 m/s 736 mmHg 92%
    02:00 +17°C° 0 mm 2 m/s 735 mmHg 92%
    03:00 +17°C° 0 mm 3 m/s 735 mmHg 92%
    04:00 +17°C° 0 mm 3 m/s 735 mmHg 92%
    05:00 +17°C° 0 mm 3 m/s 735 mmHg 92%
    06:00 +17°C° 0 mm 4 m/s 734 mmHg 92%
    07:00 +16°C° 0.2 mm 5 m/s 735 mmHg 91%
    08:00 +17°C° 0.2 mm 6 m/s 735 mmHg 90%
    09:00 +17°C° 0.2 mm 6 m/s 735 mmHg 89%
    10:00 +16°C° 0 mm 7 m/s 735 mmHg 84%
    11:00 +16°C° 0 mm 7 m/s 735 mmHg 79%
    12:00 +16°C° 0 mm 7 m/s 736 mmHg 74%
    13:00 +16°C° 0 mm 7 m/s 736 mmHg 71%
    14:00 +16°C° 0 mm 7 m/s 736 mmHg 68%
    15:00 +16°C° 0 mm 7 m/s 736 mmHg 66%
    16:00 +15°C° 0 mm 7 m/s 736 mmHg 67%
    17:00 +14°C° 0 mm 7 m/s 736 mmHg 68%
    18:00 +12°C° 0 mm 7 m/s 737 mmHg 70%
    19:00 +11°C° 0 mm 6 m/s 737 mmHg 67%
    20:00 +10°C° 0 mm 5 m/s 737 mmHg 65%
    21:00 +9°C° 0 mm 5 m/s 737 mmHg 63%
    22:00 +9°C° 0 mm 5 m/s 737 mmHg 64%
    23:00 +10°C° 0 mm 4 m/s 737 mmHg 65%

    29 Juillet, Lundi

    Heure Température Précipitation Vent Pression Humidité
    00:00 +10°C° 0 mm 4 m/s 737 mmHg 67%
    01:00 +10°C° 0 mm 4 m/s 738 mmHg 68%
    02:00 +10°C° 0 mm 4 m/s 738 mmHg 69%
    03:00 +8°C° 0 mm 4 m/s 738 mmHg 70%
    04:00 +8°C° 0 mm 4 m/s 738 mmHg 72%
    05:00 +8°C° 0 mm 4 m/s 738 mmHg 73%
    06:00 +8°C° 0 mm 4 m/s 737 mmHg 74%
    07:00 +8°C° 0 mm 4 m/s 738 mmHg 72%
    08:00 +10°C° 0 mm 4 m/s 738 mmHg 69%
    09:00 +11°C° 0 mm 4 m/s 738 mmHg 67%
    10:00 +11°C° 0.1 mm 4 m/s 738 mmHg 68%
    11:00 +11°C° 0.1 mm 4 m/s 738 mmHg 70%
    12:00 +11°C° 0.1 mm 4 m/s 738 mmHg 71%
    13:00 +11°C° 0.1 mm 4 m/s 737 mmHg 71%
    14:00 +11°C° 0.1 mm 4 m/s 737 mmHg 71%
    15:00 +11°C° 0.1 mm 4 m/s 737 mmHg 70%
    16:00 +10°C° 0.1 mm 4 m/s 737 mmHg 72%
    17:00 +10°C° 0.1 mm 3 m/s 737 mmHg 74%
    18:00 +10°C° 0.1 mm 3 m/s 737 mmHg 76%
    19:00 +9°C° 0 mm 3 m/s 737 mmHg 76%
    20:00 +8°C° 0 mm 3 m/s 737 mmHg 77%
    21:00 +8°C° 0 mm 3 m/s 737 mmHg 77%
    22:00 +7°C° 0 mm 3 m/s 737 mmHg 80%
    23:00 +5°C° 0 mm 3 m/s 736 mmHg 83%
    Voir plus